owner,sensor,date,latitude,longitude,air_pressure(mBar),qcFlag 
DISL,ioos:station:DISL:MHPA:1,2018-01-01T06:30:00Z,30.6671,-87.9365,1028.446643,1111122 
DISL,ioos:station:DISL:MHPA:1,2018-01-01T07:30:00Z,30.6671,-87.9365,1028.108004,1111122 
DISL,ioos:station:DISL:MHPA:1,2018-01-01T08:30:00Z,30.6671,-87.9365,1028.446643,1111122 
DISL,ioos:station:DISL:MHPA:1,2018-01-01T09:30:00Z,30.6671,-87.9365,1029.801199,1111122 
DISL,ioos:station:DISL:MHPA:1,2018-01-01T10:30:00Z,30.6671,-87.9365,1030.478477,1111122 
DISL,ioos:station:DISL:MHPA:1,2018-01-01T11:30:00Z,30.6671,-87.9365,1030.478477,1111122 
DISL,ioos:station:DISL:MHPA:1,2018-01-01T12:30:00Z,30.6671,-87.9365,1032.510311,1111122 
DISL,ioos:station:DISL:MHPA:1,2018-01-01T13:30:00Z,30.6671,-87.9365,1032.171672,1111122 
DISL,ioos:station:DISL:MHPA:1,2018-01-01T14:30:00Z,30.6671,-87.9365,1033.526228,1111122 
DISL,ioos:station:DISL:MHPA:1,2018-01-01T15:30:00Z,30.6671,-87.9365,1033.864867,1111122 
DISL,ioos:station:DISL:MHPA:1,2018-01-01T16:30:00Z,30.6671,-87.9365,1034.203506,1111122 
DISL,ioos:station:DISL:MHPA:1,2018-01-01T17:30:00Z,30.6671,-87.9365,1033.526228,1111122 
DISL,ioos:station:DISL:MHPA:1,2018-01-01T18:30:00Z,30.6671,-87.9365,1032.510311,1111122 
DISL,ioos:station:DISL:MHPA:1,2018-01-01T19:30:00Z,30.6671,-87.9365,1031.155755,1111122 
DISL,ioos:station:DISL:MHPA:1,2018-01-01T20:30:00Z,30.6671,-87.9365,1031.494394,1111122 
DISL,ioos:station:DISL:MHPA:1,2018-01-01T21:30:00Z,30.6671,-87.9365,1032.171672,1111122 
DISL,ioos:station:DISL:MHPA:1,2018-01-01T22:30:00Z,30.6671,-87.9365,1032.510311,1111122 
DISL,ioos:station:DISL:MHPA:1,2018-01-01T23:30:00Z,30.6671,-87.9365,1033.526228,1111122 
DISL,ioos:station:DISL:MHPA:1,2018-01-02T00:30:00Z,30.6671,-87.9365,1033.526228,1111122 
DISL,ioos:station:DISL:MHPA:1,2018-01-02T01:30:00Z,30.6671,-87.9365,1033.864867,1111122 
DISL,ioos:station:DISL:MHPA:1,2018-01-02T02:30:00Z,30.6671,-87.9365,1034.880784,1111122 
DISL,ioos:station:DISL:MHPA:1,2018-01-02T03:30:00Z,30.6671,-87.9365,1034.542145,1111122 
DISL,ioos:station:DISL:MHPA:1,2018-01-02T04:30:00Z,30.6671,-87.9365,1034.880784,1111122 
DISL,ioos:station:DISL:MHPA:1,2018-01-02T05:30:00Z,30.6671,-87.9365,1035.219423,1111122 
DISL,ioos:station:DISL:MHPA:1,2018-01-02T06:30:00Z,30.6671,-87.9365,1034.542145,1111122 
DISL,ioos:station:DISL:MHPA:1,2018-01-02T07:30:00Z,30.6671,-87.9365,1034.542145,1111122 
DISL,ioos:station:DISL:MHPA:1,2018-01-02T08:30:00Z,30.6671,-87.9365,1033.864867,1111122 
DISL,ioos:station:DISL:MHPA:1,2018-01-02T09:30:00Z,30.6671,-87.9365,1034.880784,1111122 
DISL,ioos:station:DISL:MHPA:1,2018-01-02T10:30:00Z,30.6671,-87.9365,1034.542145,1111122 
DISL,ioos:station:DISL:MHPA:1,2018-01-02T11:30:00Z,30.6671,-87.9365,1035.558062,1111122 
DISL,ioos:station:DISL:MHPA:1,2018-01-02T12:30:00Z,30.6671,-87.9365,1035.558062,1111122 
DISL,ioos:station:DISL:MHPA:1,2018-01-02T13:30:00Z,30.6671,-87.9365,1036.23534,1111122 
DISL,ioos:station:DISL:MHPA:1,2018-01-02T14:30:00Z,30.6671,-87.9365,1035.219423,1111122 
DISL,ioos:station:DISL:MHPA:1,2018-01-02T15:30:00Z,30.6671,-87.9365,1035.558062,1111122 
DISL,ioos:station:DISL:MHPA:1,2018-01-02T16:30:00Z,30.6671,-87.9365,1035.219423,1111122 
DISL,ioos:station:DISL:MHPA:1,2018-01-02T19:30:00Z,30.6671,-87.9365,1031.155755,1111122 
DISL,ioos:station:DISL:MHPA:1,2018-01-02T20:30:00Z,30.6671,-87.9365,1029.801199,1111122 
DISL,ioos:station:DISL:MHPA:1,2018-01-02T21:30:00Z,30.6671,-87.9365,1029.801199,1111122 
DISL,ioos:station:DISL:MHPA:1,2018-01-02T22:30:00Z,30.6671,-87.9365,1029.801199,1111122 
DISL,ioos:station:DISL:MHPA:1,2018-01-02T23:30:00Z,30.6671,-87.9365,1028.785282,1111122 
DISL,ioos:station:DISL:MHPA:1,2018-01-03T00:30:00Z,30.6671,-87.9365,1029.123921,1111122 
DISL,ioos:station:DISL:MHPA:1,2018-01-03T01:30:00Z,30.6671,-87.9365,1030.139838,1111122 
DISL,ioos:station:DISL:MHPA:1,2018-01-03T02:30:00Z,30.6671,-87.9365,1029.801199,1111122 
DISL,ioos:station:DISL:MHPA:1,2018-01-03T03:30:00Z,30.6671,-87.9365,1029.123921,1111122 
DISL,ioos:station:DISL:MHPA:1,2018-01-03T04:30:00Z,30.6671,-87.9365,1028.785282,1111122 
DISL,ioos:station:DISL:MHPA:1,2018-01-03T05:30:00Z,30.6671,-87.9365,1027.430726,1111122 
DISL,ioos:station:DISL:MHPA:1,2018-01-03T06:30:00Z,30.6671,-87.9365,1026.753448,1111122 
DISL,ioos:station:DISL:MHPA:1,2018-01-03T07:30:00Z,30.6671,-87.9365,1026.07617,1111122 
DISL,ioos:station:DISL:MHPA:1,2018-01-03T08:30:00Z,30.6671,-87.9365,1026.753448,1111122 
DISL,ioos:station:DISL:MHPA:1,2018-01-03T09:30:00Z,30.6671,-87.9365,1026.753448,1111122 
DISL,ioos:station:DISL:MHPA:1,2018-01-03T10:30:00Z,30.6671,-87.9365,1026.07617,1111122 
DISL,ioos:station:DISL:MHPA:1,2018-01-03T11:30:00Z,30.6671,-87.9365,1026.07617,1111122 
DISL,ioos:station:DISL:MHPA:1,2018-01-03T12:30:00Z,30.6671,-87.9365,1025.737531,1111122 
DISL,ioos:station:DISL:MHPA:1,2018-01-03T13:30:00Z,30.6671,-87.9365,1025.398892,1111122 
DISL,ioos:station:DISL:MHPA:1,2018-01-03T14:30:00Z,30.6671,-87.9365,1025.737531,1111122 
DISL,ioos:station:DISL:MHPA:1,2018-01-03T15:30:00Z,30.6671,-87.9365,1026.07617,1111122 
DISL,ioos:station:DISL:MHPA:1,2018-01-03T16:30:00Z,30.6671,-87.9365,1025.737531,1111122 
DISL,ioos:station:DISL:MHPA:1,2018-01-03T17:30:00Z,30.6671,-87.9365,1024.382975,1111122 
DISL,ioos:station:DISL:MHPA:1,2018-01-03T18:30:00Z,30.6671,-87.9365,1022.68978,1111122 
DISL,ioos:station:DISL:MHPA:1,2018-01-03T19:30:00Z,30.6671,-87.9365,1022.351141,1111122 
DISL,ioos:station:DISL:MHPA:1,2018-01-03T20:30:00Z,30.6671,-87.9365,1022.351141,1111122 
DISL,ioos:station:DISL:MHPA:1,2018-01-03T21:30:00Z,30.6671,-87.9365,1022.012502,1111122 
DISL,ioos:station:DISL:MHPA:1,2018-01-03T22:30:00Z,30.6671,-87.9365,1021.673863,1111122 
DISL,ioos:station:DISL:MHPA:1,2018-01-03T23:30:00Z,30.6671,-87.9365,1022.351141,1111122 
DISL,ioos:station:DISL:MHPA:1,2018-01-04T00:30:00Z,30.6671,-87.9365,1022.68978,1111122 
DISL,ioos:station:DISL:MHPA:1,2018-01-04T01:30:00Z,30.6671,-87.9365,1023.367058,1111122 
DISL,ioos:station:DISL:MHPA:1,2018-01-04T02:30:00Z,30.6671,-87.9365,1023.705697,1111122 
DISL,ioos:station:DISL:MHPA:1,2018-01-04T03:30:00Z,30.6671,-87.9365,1023.705697,1111122 
DISL,ioos:station:DISL:MHPA:1,2018-01-04T04:30:00Z,30.6671,-87.9365,1024.382975,1111122 
DISL,ioos:station:DISL:MHPA:1,2018-01-04T05:30:00Z,30.6671,-87.9365,1024.382975,1111122 
DISL,ioos:station:DISL:MHPA:1,2018-01-04T06:30:00Z,30.6671,-87.9365,1023.705697,1111122 
DISL,ioos:station:DISL:MHPA:1,2018-01-04T07:30:00Z,30.6671,-87.9365,1024.044336,1111122 
DISL,ioos:station:DISL:MHPA:1,2018-01-04T08:30:00Z,30.6671,-87.9365,1024.382975,1111122 
DISL,ioos:station:DISL:MHPA:1,2018-01-04T09:30:00Z,30.6671,-87.9365,1023.367058,1111122 
DISL,ioos:station:DISL:MHPA:1,2018-01-04T10:30:00Z,30.6671,-87.9365,1023.705697,1111122 
DISL,ioos:station:DISL:MHPA:1,2018-01-04T11:30:00Z,30.6671,-87.9365,1024.382975,1111122 
DISL,ioos:station:DISL:MHPA:1,2018-01-04T12:30:00Z,30.6671,-87.9365,1025.060253,1111122 
DISL,ioos:station:DISL:MHPA:1,2018-01-04T13:30:00Z,30.6671,-87.9365,1026.07617,1111122 
DISL,ioos:station:DISL:MHPA:1,2018-01-04T14:30:00Z,30.6671,-87.9365,1026.07617,1111122 
DISL,ioos:station:DISL:MHPA:1,2018-01-04T15:30:00Z,30.6671,-87.9365,1027.092087,1111122 
DISL,ioos:station:DISL:MHPA:1,2018-01-04T16:30:00Z,30.6671,-87.9365,1026.07617,1111122 
DISL,ioos:station:DISL:MHPA:1,2018-01-23T20:02:00Z,30.6671,-87.9365,1018.964751,1111122 
DISL,ioos:station:DISL:MHPA:1,2018-01-23T20:32:00Z,30.6671,-87.9365,1019.30339,1111122 
DISL,ioos:station:DISL:MHPA:1,2018-01-23T21:02:00Z,30.6671,-87.9365,1019.642029,1111122 
DISL,ioos:station:DISL:MHPA:1,2018-01-23T22:02:00Z,30.6671,-87.9365,1019.980668,1111122 
DISL,ioos:station:DISL:MHPA:1,2018-01-23T23:02:00Z,30.6671,-87.9365,1019.642029,1111122 
DISL,ioos:station:DISL:MHPA:1,2018-01-24T00:03:00Z,30.6671,-87.9365,1021.673863,1111122 
DISL,ioos:station:DISL:MHPA:1,2018-01-24T01:02:00Z,30.6671,-87.9365,1022.012502,1111122 
DISL,ioos:station:DISL:MHPA:1,2018-01-24T02:02:00Z,30.6671,-87.9365,1022.351141,1111122 
DISL,ioos:station:DISL:MHPA:1,2018-01-24T03:02:00Z,30.6671,-87.9365,1023.367058,1111122 
DISL,ioos:station:DISL:MHPA:1,2018-01-24T04:02:00Z,30.6671,-87.9365,1024.382975,1111122 
DISL,ioos:station:DISL:MHPA:1,2018-01-24T05:02:00Z,30.6671,-87.9365,1024.044336,1111122 
DISL,ioos:station:DISL:MHPA:1,2018-01-24T06:03:00Z,30.6671,-87.9365,1023.367058,1111122 
DISL,ioos:station:DISL:MHPA:1,2018-01-24T07:02:00Z,30.6671,-87.9365,1023.705697,1111122 
DISL,ioos:station:DISL:MHPA:1,2018-01-24T08:02:00Z,30.6671,-87.9365,1025.060253,1111122 
DISL,ioos:station:DISL:MHPA:1,2018-01-24T09:02:00Z,30.6671,-87.9365,1025.060253,1111122 
DISL,ioos:station:DISL:MHPA:1,2018-01-24T10:02:00Z,30.6671,-87.9365,1026.07617,1111122 
DISL,ioos:station:DISL:MHPA:1,2018-01-24T11:02:00Z,30.6671,-87.9365,1026.07617,1111122 
DISL,ioos:station:DISL:MHPA:1,2018-01-24T12:02:00Z,30.6671,-87.9365,1027.092087,1111122 
DISL,ioos:station:DISL:MHPA:1,2018-01-24T13:02:00Z,30.6671,-87.9365,1027.430726,1111122 
DISL,ioos:station:DISL:MHPA:1,2018-01-24T14:02:00Z,30.6671,-87.9365,1028.785282,1111122 
DISL,ioos:station:DISL:MHPA:1,2018-01-24T15:02:00Z,30.6671,-87.9365,1030.139838,1111122 
DISL,ioos:station:DISL:MHPA:1,2018-01-24T16:02:00Z,30.6671,-87.9365,1029.123921,1111122 
DISL,ioos:station:DISL:MHPA:1,2018-01-24T17:02:00Z,30.6671,-87.9365,1029.801199,1111122 
DISL,ioos:station:DISL:MHPA:1,2018-01-24T18:02:00Z,30.6671,-87.9365,1028.446643,1111122 
DISL,ioos:station:DISL:MHPA:1,2018-01-24T20:02:00Z,30.6671,-87.9365,1026.414809,1111122 
DISL,ioos:station:DISL:MHPA:1,2018-01-24T21:02:00Z,30.6671,-87.9365,1027.092087,1111122 
DISL,ioos:station:DISL:MHPA:1,2018-01-24T22:02:00Z,30.6671,-87.9365,1027.430726,1111122 
DISL,ioos:station:DISL:MHPA:1,2018-01-24T23:02:00Z,30.6671,-87.9365,1028.108004,1111122 
DISL,ioos:station:DISL:MHPA:1,2018-01-25T00:02:00Z,30.6671,-87.9365,1028.785282,1111122 
DISL,ioos:station:DISL:MHPA:1,2018-01-25T01:02:00Z,30.6671,-87.9365,1029.801199,1111122 
DISL,ioos:station:DISL:MHPA:1,2018-01-25T02:02:00Z,30.6671,-87.9365,1029.801199,1111122 
DISL,ioos:station:DISL:MHPA:1,2018-01-25T03:02:00Z,30.6671,-87.9365,1030.139838,1111122 
DISL,ioos:station:DISL:MHPA:1,2018-01-25T04:02:00Z,30.6671,-87.9365,1030.817116,1111122 
DISL,ioos:station:DISL:MHPA:1,2018-01-25T05:02:00Z,30.6671,-87.9365,1030.817116,1111122 
DISL,ioos:station:DISL:MHPA:1,2018-01-25T06:02:00Z,30.6671,-87.9365,1030.478477,1111122 
DISL,ioos:station:DISL:MHPA:1,2018-01-25T07:02:00Z,30.6671,-87.9365,1030.478477,1111122 
DISL,ioos:station:DISL:MHPA:1,2018-01-25T08:02:00Z,30.6671,-87.9365,1030.817116,1111122 
DISL,ioos:station:DISL:MHPA:1,2018-01-25T09:02:00Z,30.6671,-87.9365,1030.817116,1111122 
DISL,ioos:station:DISL:MHPA:1,2018-01-25T10:02:00Z,30.6671,-87.9365,1030.478477,1111122 
DISL,ioos:station:DISL:MHPA:1,2018-01-25T11:02:00Z,30.6671,-87.9365,1030.817116,1111122 
DISL,ioos:station:DISL:MHPA:1,2018-01-25T12:02:00Z,30.6671,-87.9365,1031.833033,1111122 
DISL,ioos:station:DISL:MHPA:1,2018-01-25T13:02:00Z,30.6671,-87.9365,1032.171672,1111122 
DISL,ioos:station:DISL:MHPA:1,2018-01-25T14:02:00Z,30.6671,-87.9365,1032.84895,1111122 
DISL,ioos:station:DISL:MHPA:1,2018-01-25T15:02:00Z,30.6671,-87.9365,1032.84895,1111122 
DISL,ioos:station:DISL:MHPA:1,2018-01-25T16:02:00Z,30.6671,-87.9365,1033.526228,1111122 
DISL,ioos:station:DISL:MHPA:1,2018-01-25T17:02:00Z,30.6671,-87.9365,1033.526228,1111122 
DISL,ioos:station:DISL:MHPA:1,2018-01-25T18:02:00Z,30.6671,-87.9365,1032.171672,1111122 
DISL,ioos:station:DISL:MHPA:1,2018-01-25T19:02:00Z,30.6671,-87.9365,1031.155755,1111122 
DISL,ioos:station:DISL:MHPA:1,2018-01-25T20:02:00Z,30.6671,-87.9365,1030.139838,1111122 
DISL,ioos:station:DISL:MHPA:1,2018-01-25T21:02:00Z,30.6671,-87.9365,1030.139838,1111122 
DISL,ioos:station:DISL:MHPA:1,2018-01-25T22:02:00Z,30.6671,-87.9365,1029.801199,1111122 
DISL,ioos:station:DISL:MHPA:1,2018-01-25T23:02:00Z,30.6671,-87.9365,1030.817116,1111122 
DISL,ioos:station:DISL:MHPA:1,2018-01-26T00:02:00Z,30.6671,-87.9365,1030.817116,1111122 
DISL,ioos:station:DISL:MHPA:1,2018-01-26T01:02:00Z,30.6671,-87.9365,1031.155755,1111122 
DISL,ioos:station:DISL:MHPA:1,2018-01-26T02:02:00Z,30.6671,-87.9365,1030.817116,1111122 
DISL,ioos:station:DISL:MHPA:1,2018-01-26T03:02:00Z,30.6671,-87.9365,1031.494394,1111122 
DISL,ioos:station:DISL:MHPA:1,2018-01-26T04:02:00Z,30.6671,-87.9365,1030.817116,1111122 
DISL,ioos:station:DISL:MHPA:1,2018-01-26T05:02:00Z,30.6671,-87.9365,1031.155755,1111122 
DISL,ioos:station:DISL:MHPA:1,2018-01-26T06:02:00Z,30.6671,-87.9365,1030.478477,1111122 
DISL,ioos:station:DISL:MHPA:1,2018-01-26T07:02:00Z,30.6671,-87.9365,1029.801199,1111122 
DISL,ioos:station:DISL:MHPA:1,2018-01-26T08:02:00Z,30.6671,-87.9365,1030.478477,1111122 
DISL,ioos:station:DISL:MHPA:1,2018-01-26T09:02:00Z,30.6671,-87.9365,1030.478477,1111122 
DISL,ioos:station:DISL:MHPA:1,2018-01-26T10:02:00Z,30.6671,-87.9365,1029.801199,1111122 
DISL,ioos:station:DISL:MHPA:1,2018-01-26T11:02:00Z,30.6671,-87.9365,1029.46256,1111122 
DISL,ioos:station:DISL:MHPA:1,2018-01-26T12:02:00Z,30.6671,-87.9365,1030.817116,1111122 
DISL,ioos:station:DISL:MHPA:1,2018-01-26T13:02:00Z,30.6671,-87.9365,1031.155755,1111122 
DISL,ioos:station:DISL:MHPA:1,2018-01-26T14:02:00Z,30.6671,-87.9365,1030.478477,1111122 
DISL,ioos:station:DISL:MHPA:1,2018-01-26T15:02:00Z,30.6671,-87.9365,1032.171672,1111122 
DISL,ioos:station:DISL:MHPA:1,2018-01-26T16:02:00Z,30.6671,-87.9365,1031.833033,1111122 
DISL,ioos:station:DISL:MHPA:1,2018-01-26T17:02:00Z,30.6671,-87.9365,1032.171672,1111122 
DISL,ioos:station:DISL:MHPA:1,2018-01-26T18:02:00Z,30.6671,-87.9365,1031.494394,1111122 
DISL,ioos:station:DISL:MHPA:1,2018-01-26T19:02:00Z,30.6671,-87.9365,1030.139838,1111122 
DISL,ioos:station:DISL:MHPA:1,2018-01-26T20:02:00Z,30.6671,-87.9365,1029.123921,1111122 
DISL,ioos:station:DISL:MHPA:1,2018-01-26T21:02:00Z,30.6671,-87.9365,1029.123921,1111122 
DISL,ioos:station:DISL:MHPA:1,2018-01-26T22:02:00Z,30.6671,-87.9365,1028.785282,1111122 
DISL,ioos:station:DISL:MHPA:1,2018-01-26T23:02:00Z,30.6671,-87.9365,1029.123921,1111122 
DISL,ioos:station:DISL:MHPA:1,2018-01-27T00:02:00Z,30.6671,-87.9365,1028.785282,1111122 
DISL,ioos:station:DISL:MHPA:1,2018-01-27T01:02:00Z,30.6671,-87.9365,1028.785282,1111122 
DISL,ioos:station:DISL:MHPA:1,2018-01-27T02:02:00Z,30.6671,-87.9365,1028.785282,1111122 
DISL,ioos:station:DISL:MHPA:1,2018-01-27T03:02:00Z,30.6671,-87.9365,1028.446643,1111122 
DISL,ioos:station:DISL:MHPA:1,2018-01-27T04:02:00Z,30.6671,-87.9365,1028.108004,1111122 
DISL,ioos:station:DISL:MHPA:1,2018-01-27T05:02:00Z,30.6671,-87.9365,1028.108004,1111122 
DISL,ioos:station:DISL:MHPA:1,2018-01-27T06:02:00Z,30.6671,-87.9365,1027.430726,1111122 
DISL,ioos:station:DISL:MHPA:1,2018-01-27T07:02:00Z,30.6671,-87.9365,1027.092087,1111122 
DISL,ioos:station:DISL:MHPA:1,2018-01-27T08:02:00Z,30.6671,-87.9365,1025.398892,1111122 
DISL,ioos:station:DISL:MHPA:1,2018-01-27T09:02:00Z,30.6671,-87.9365,1025.060253,1111122 
DISL,ioos:station:DISL:MHPA:1,2018-01-27T10:02:00Z,30.6671,-87.9365,1024.721614,1111122 
DISL,ioos:station:DISL:MHPA:1,2018-01-27T11:02:00Z,30.6671,-87.9365,1025.060253,1111122 
DISL,ioos:station:DISL:MHPA:1,2018-01-27T12:02:00Z,30.6671,-87.9365,1025.737531,1111122 
DISL,ioos:station:DISL:MHPA:1,2018-01-27T13:02:00Z,30.6671,-87.9365,1026.07617,1111122 
DISL,ioos:station:DISL:MHPA:1,2018-01-27T14:02:00Z,30.6671,-87.9365,1026.414809,1111122 
DISL,ioos:station:DISL:MHPA:1,2018-01-27T15:02:00Z,30.6671,-87.9365,1026.753448,1111122 
DISL,ioos:station:DISL:MHPA:1,2018-01-27T16:02:00Z,30.6671,-87.9365,1025.398892,1111122 
DISL,ioos:station:DISL:MHPA:1,2018-01-27T17:02:00Z,30.6671,-87.9365,1025.737531,1111122 
DISL,ioos:station:DISL:MHPA:1,2018-01-27T18:02:00Z,30.6671,-87.9365,1025.060253,1111122 
DISL,ioos:station:DISL:MHPA:1,2018-01-27T19:02:00Z,30.6671,-87.9365,1023.705697,1111122 
DISL,ioos:station:DISL:MHPA:1,2018-01-27T20:02:00Z,30.6671,-87.9365,1022.68978,1111122 
DISL,ioos:station:DISL:MHPA:1,2018-01-27T21:02:00Z,30.6671,-87.9365,1022.351141,1111122 
DISL,ioos:station:DISL:MHPA:1,2018-01-27T22:02:00Z,30.6671,-87.9365,1021.673863,1111122 
DISL,ioos:station:DISL:MHPA:1,2018-01-27T23:02:00Z,30.6671,-87.9365,1022.68978,1111122 
DISL,ioos:station:DISL:MHPA:1,2018-01-28T00:02:00Z,30.6671,-87.9365,1022.012502,1111122 
DISL,ioos:station:DISL:MHPA:1,2018-01-28T01:02:00Z,30.6671,-87.9365,1022.68978,1111122 
DISL,ioos:station:DISL:MHPA:1,2018-01-28T02:02:00Z,30.6671,-87.9365,1022.351141,1111122 
DISL,ioos:station:DISL:MHPA:1,2018-01-28T03:02:00Z,30.6671,-87.9365,1021.673863,1111122 
DISL,ioos:station:DISL:MHPA:1,2018-01-28T04:02:00Z,30.6671,-87.9365,1020.996585,1111122 
DISL,ioos:station:DISL:MHPA:1,2018-01-28T05:02:00Z,30.6671,-87.9365,1019.980668,1111122 
DISL,ioos:station:DISL:MHPA:1,2018-01-28T06:02:00Z,30.6671,-87.9365,1020.319307,1111122 
DISL,ioos:station:DISL:MHPA:1,2018-01-28T07:02:00Z,30.6671,-87.9365,1019.30339,1111122 
DISL,ioos:station:DISL:MHPA:1,2018-01-28T08:02:00Z,30.6671,-87.9365,1019.642029,1111122 
DISL,ioos:station:DISL:MHPA:1,2018-01-28T09:02:00Z,30.6671,-87.9365,1018.964751,1111122 
DISL,ioos:station:DISL:MHPA:1,2018-01-28T10:02:00Z,30.6671,-87.9365,1017.948834,1111122 
DISL,ioos:station:DISL:MHPA:1,2018-01-28T11:02:00Z,30.6671,-87.9365,1017.948834,1111122 
DISL,ioos:station:DISL:MHPA:1,2018-01-28T12:02:00Z,30.6671,-87.9365,1018.964751,1111122 
DISL,ioos:station:DISL:MHPA:1,2018-01-28T13:02:00Z,30.6671,-87.9365,1017.948834,1111122 
DISL,ioos:station:DISL:MHPA:1,2018-01-28T14:02:00Z,30.6671,-87.9365,1019.642029,1111122 
DISL,ioos:station:DISL:MHPA:1,2018-01-28T15:02:00Z,30.6671,-87.9365,1019.30339,1111122 
DISL,ioos:station:DISL:MHPA:1,2018-01-28T16:03:00Z,30.6671,-87.9365,1019.642029,1111122 
DISL,ioos:station:DISL:MHPA:1,2018-01-28T17:02:00Z,30.6671,-87.9365,1019.642029,1111122 
DISL,ioos:station:DISL:MHPA:1,2018-01-28T18:02:00Z,30.6671,-87.9365,1018.964751,1111122 
DISL,ioos:station:DISL:MHPA:1,2018-01-28T19:02:00Z,30.6671,-87.9365,1017.271556,1111122 
DISL,ioos:station:DISL:MHPA:1,2018-01-28T20:02:00Z,30.6671,-87.9365,1016.594278,1111122 
DISL,ioos:station:DISL:MHPA:1,2018-01-28T21:03:00Z,30.6671,-87.9365,1017.610195,1111122 
DISL,ioos:station:DISL:MHPA:1,2018-01-28T22:03:00Z,30.6671,-87.9365,1016.594278,1111122 
DISL,ioos:station:DISL:MHPA:1,2018-01-28T23:03:00Z,30.6671,-87.9365,1016.932917,1111122 
DISL,ioos:station:DISL:MHPA:1,2018-01-29T00:03:00Z,30.6671,-87.9365,1017.610195,1111122 
DISL,ioos:station:DISL:MHPA:1,2018-01-29T01:02:00Z,30.6671,-87.9365,1018.626112,1111122 
DISL,ioos:station:DISL:MHPA:1,2018-01-29T02:02:00Z,30.6671,-87.9365,1018.964751,1111122 
DISL,ioos:station:DISL:MHPA:1,2018-01-29T03:02:00Z,30.6671,-87.9365,1018.964751,1111122 
DISL,ioos:station:DISL:MHPA:1,2018-01-29T04:02:00Z,30.6671,-87.9365,1019.980668,1111122 
DISL,ioos:station:DISL:MHPA:1,2018-01-29T05:03:00Z,30.6671,-87.9365,1019.30339,1111122 
DISL,ioos:station:DISL:MHPA:1,2018-01-29T06:02:00Z,30.6671,-87.9365,1018.964751,1111122 
DISL,ioos:station:DISL:MHPA:1,2018-01-29T07:03:00Z,30.6671,-87.9365,1019.642029,1111122 
DISL,ioos:station:DISL:MHPA:1,2018-01-29T08:02:00Z,30.6671,-87.9365,1018.964751,1111122 
DISL,ioos:station:DISL:MHPA:1,2018-01-29T09:02:00Z,30.6671,-87.9365,1019.642029,1111122 
DISL,ioos:station:DISL:MHPA:1,2018-01-29T10:02:00Z,30.6671,-87.9365,1019.980668,1111122 
DISL,ioos:station:DISL:MHPA:1,2018-01-29T11:03:00Z,30.6671,-87.9365,1020.319307,1111122 
DISL,ioos:station:DISL:MHPA:1,2018-01-29T12:02:00Z,30.6671,-87.9365,1020.657946,1111122 
DISL,ioos:station:DISL:MHPA:1,2018-01-29T13:03:00Z,30.6671,-87.9365,1021.673863,1111122 
DISL,ioos:station:DISL:MHPA:1,2018-01-29T14:03:00Z,30.6671,-87.9365,1022.351141,1111122 
DISL,ioos:station:DISL:MHPA:1,2018-01-29T15:03:00Z,30.6671,-87.9365,1022.68978,1111122 
DISL,ioos:station:DISL:MHPA:1,2018-01-29T16:03:00Z,30.6671,-87.9365,1023.705697,1111122 
DISL,ioos:station:DISL:MHPA:1,2018-01-29T17:03:00Z,30.6671,-87.9365,1023.367058,1111122 
DISL,ioos:station:DISL:MHPA:1,2018-01-29T18:03:00Z,30.6671,-87.9365,1023.028419,1111122 
DISL,ioos:station:DISL:MHPA:1,2018-01-29T19:03:00Z,30.6671,-87.9365,1022.012502,1111122 
DISL,ioos:station:DISL:MHPA:1,2018-01-29T20:03:00Z,30.6671,-87.9365,1021.335224,1111122 
DISL,ioos:station:DISL:MHPA:1,2018-01-29T21:03:00Z,30.6671,-87.9365,1021.673863,1111122 
DISL,ioos:station:DISL:MHPA:1,2018-01-29T22:03:00Z,30.6671,-87.9365,1022.351141,1111122 
DISL,ioos:station:DISL:MHPA:1,2018-01-29T23:03:00Z,30.6671,-87.9365,1022.351141,1111122 
DISL,ioos:station:DISL:MHPA:1,2018-01-30T00:03:00Z,30.6671,-87.9365,1024.044336,1111122 
DISL,ioos:station:DISL:MHPA:1,2018-01-30T01:03:00Z,30.6671,-87.9365,1024.044336,1111122 
DISL,ioos:station:DISL:MHPA:1,2018-01-30T02:03:00Z,30.6671,-87.9365,1025.060253,1111122 
DISL,ioos:station:DISL:MHPA:1,2018-01-30T03:03:00Z,30.6671,-87.9365,1026.414809,1111122 
DISL,ioos:station:DISL:MHPA:1,2018-01-30T04:03:00Z,30.6671,-87.9365,1027.092087,1111122 
DISL,ioos:station:DISL:MHPA:1,2018-01-30T05:03:00Z,30.6671,-87.9365,1026.753448,1111122 
DISL,ioos:station:DISL:MHPA:1,2018-01-30T06:03:00Z,30.6671,-87.9365,1026.414809,1111122 
DISL,ioos:station:DISL:MHPA:1,2018-01-30T07:03:00Z,30.6671,-87.9365,1027.430726,1111122 
DISL,ioos:station:DISL:MHPA:1,2018-01-30T08:03:00Z,30.6671,-87.9365,1027.769365,1111122 
DISL,ioos:station:DISL:MHPA:1,2018-01-30T09:03:00Z,30.6671,-87.9365,1027.769365,1111122 
DISL,ioos:station:DISL:MHPA:1,2018-01-30T10:03:00Z,30.6671,-87.9365,1027.769365,1111122 
DISL,ioos:station:DISL:MHPA:1,2018-01-30T11:03:00Z,30.6671,-87.9365,1029.123921,1111122 
DISL,ioos:station:DISL:MHPA:1,2018-01-30T12:03:00Z,30.6671,-87.9365,1030.478477,1111122 
DISL,ioos:station:DISL:MHPA:1,2018-01-30T13:03:00Z,30.6671,-87.9365,1031.155755,1111122 
DISL,ioos:station:DISL:MHPA:1,2018-01-30T14:03:00Z,30.6671,-87.9365,1031.833033,1111122 
DISL,ioos:station:DISL:MHPA:1,2018-01-30T15:03:00Z,30.6671,-87.9365,1030.817116,1111122 
DISL,ioos:station:DISL:MHPA:1,2018-01-30T16:03:00Z,30.6671,-87.9365,1031.155755,1111122 
DISL,ioos:station:DISL:MHPA:1,2018-01-30T17:03:00Z,30.6671,-87.9365,1030.478477,1111122 
DISL,ioos:station:DISL:MHPA:1,2018-01-30T18:03:00Z,30.6671,-87.9365,1029.801199,1111122 
DISL,ioos:station:DISL:MHPA:1,2018-01-30T19:03:00Z,30.6671,-87.9365,1028.785282,1111122 
DISL,ioos:station:DISL:MHPA:1,2018-01-30T20:03:00Z,30.6671,-87.9365,1027.769365,1111122 
DISL,ioos:station:DISL:MHPA:1,2018-01-30T21:03:00Z,30.6671,-87.9365,1027.430726,1111122 
DISL,ioos:station:DISL:MHPA:1,2018-01-30T22:03:00Z,30.6671,-87.9365,1027.769365,1111122 
DISL,ioos:station:DISL:MHPA:1,2018-01-30T23:03:00Z,30.6671,-87.9365,1027.769365,1111122 
DISL,ioos:station:DISL:MHPA:1,2018-01-31T00:03:00Z,30.6671,-87.9365,1027.769365,1111122 
DISL,ioos:station:DISL:MHPA:1,2018-01-31T01:03:00Z,30.6671,-87.9365,1028.108004,1111122 
DISL,ioos:station:DISL:MHPA:1,2018-01-31T02:03:00Z,30.6671,-87.9365,1028.446643,1111122 
DISL,ioos:station:DISL:MHPA:1,2018-01-31T03:03:00Z,30.6671,-87.9365,1028.785282,1111122 
DISL,ioos:station:DISL:MHPA:1,2018-01-31T04:03:00Z,30.6671,-87.9365,1028.785282,1111122 
DISL,ioos:station:DISL:MHPA:1,2018-01-31T05:03:00Z,30.6671,-87.9365,1028.108004,1111122 
DISL,ioos:station:DISL:MHPA:1,2018-01-31T06:03:00Z,30.6671,-87.9365,1027.430726,1111122 
DISL,ioos:station:DISL:MHPA:1,2018-01-31T07:03:00Z,30.6671,-87.9365,1027.430726,1111122 
DISL,ioos:station:DISL:MHPA:1,2018-01-31T08:03:00Z,30.6671,-87.9365,1027.092087,1111122 
DISL,ioos:station:DISL:MHPA:1,2018-01-31T09:03:00Z,30.6671,-87.9365,1026.753448,1111122 
DISL,ioos:station:DISL:MHPA:1,2018-01-31T10:03:00Z,30.6671,-87.9365,1026.07617,1111122 
DISL,ioos:station:DISL:MHPA:1,2018-01-31T11:03:00Z,30.6671,-87.9365,1025.737531,1111122 
DISL,ioos:station:DISL:MHPA:1,2018-01-31T12:03:00Z,30.6671,-87.9365,1026.07617,1111122 
DISL,ioos:station:DISL:MHPA:1,2018-01-31T13:03:00Z,30.6671,-87.9365,1026.414809,1111122 
DISL,ioos:station:DISL:MHPA:1,2018-01-31T14:03:00Z,30.6671,-87.9365,1027.430726,1111122 
DISL,ioos:station:DISL:MHPA:1,2018-01-31T15:03:00Z,30.6671,-87.9365,1026.753448,1111122 